Time,TemperatureF,DewpointF,PressureIn,WindDirection,WindDirectionDegrees,WindSpeedMPH,WindSpeedGustMPH,Humidity,HourlyPrecipIn,Conditions,Clouds,dailyrainin,SoftwareType,DateUTC
2013-02-08 00:00:00,27.9,15.0,30.23,ESE,105,0.0,1.0,58,0.00,,,0.00,Wunderground v.1.15,2013-02-08 07:00:00,
2013-02-08 00:02:00,27.9,15.0,30.23,ESE,105,0.0,1.0,58,0.00,,,0.00,Wunderground v.1.15,2013-02-08 07:02:00,
2013-02-08 00:06:00,27.6,14.7,30.23,ESE,105,0.0,1.0,58,0.00,,,0.00,Wunderground v.1.15,2013-02-08 07:06:00,
2013-02-08 00:08:00,27.6,14.7,30.23,ESE,105,0.0,1.0,58,0.00,,,0.00,Wunderground v.1.15,2013-02-08 07:08:00,
2013-02-08 00:12:00,27.5,15.0,30.23,ESE,105,0.0,0.0,59,0.00,,,0.00,Wunderground v.1.15,2013-02-08 07:12:00,
2013-02-08 00:16:00,27.2,15.1,30.22,ESE,105,0.0,0.0,60,0.00,,,0.00,Wunderground v.1.15,2013-02-08 07:16:00,
2013-02-08 00:18:00,26.9,15.2,30.22,ESE,105,0.0,0.0,61,0.00,,,0.00,Wunderground v.1.15,2013-02-08 07:18:00,
2013-02-08 00:20:00,26.7,15.0,30.22,ESE,105,0.0,0.0,61,0.00,,,0.00,Wunderground v.1.15,2013-02-08 07:20:00,
2013-02-08 00:24:00,26.4,15.1,30.22,ESE,105,0.0,0.0,62,0.00,,,0.00,Wunderground v.1.15,2013-02-08 07:24:00,
2013-02-08 00:26:00,26.3,14.7,30.22,ESE,105,0.0,0.0,61,0.00,,,0.00,Wunderground v.1.15,2013-02-08 07:26:00,
2013-02-08 00:28:00,26.3,14.3,30.22,ESE,105,0.0,0.0,60,0.00,,,0.00,Wunderground v.1.15,2013-02-08 07:28:00,
2013-02-08 00:30:00,26.3,14.3,30.22,ESE,105,0.0,0.0,60,0.00,,,0.00,Wunderground v.1.15,2013-02-08 07:30:00,
2013-02-08 00:32:00,26.1,14.1,30.23,ESE,105,0.0,0.0,60,0.00,,,0.00,Wunderground v.1.15,2013-02-08 07:32:00,
2013-02-08 00:34:00,26.1,14.1,30.23,ESE,105,0.0,0.0,60,0.00,,,0.00,Wunderground v.1.15,2013-02-08 07:34:00,
2013-02-08 00:36:00,26.1,14.1,30.23,ESE,105,0.0,0.0,60,0.00,,,0.00,Wunderground v.1.15,2013-02-08 07:36:00,
2013-02-08 00:38:00,26.3,13.9,30.23,ESE,105,0.0,0.0,59,0.00,,,0.00,Wunderground v.1.15,2013-02-08 07:38:00,
2013-02-08 00:42:00,26.3,13.9,30.23,ESE,105,0.0,0.0,59,0.00,,,0.00,Wunderground v.1.15,2013-02-08 07:42:00,
2013-02-08 00:44:00,26.1,13.7,30.23,ESE,105,0.0,0.0,59,0.00,,,0.00,Wunderground v.1.15,2013-02-08 07:44:00,
2013-02-08 00:48:00,26.0,14.0,30.22,ESE,105,0.0,0.0,60,0.00,,,0.00,Wunderground v.1.15,2013-02-08 07:48:00,
2013-02-08 00:52:00,26.0,13.2,30.22,ESE,105,0.0,0.0,58,0.00,,,0.00,Wunderground v.1.15,2013-02-08 07:52:00,
2013-02-08 00:54:00,26.0,13.6,30.22,ESE,105,0.0,0.0,59,0.00,,,0.00,Wunderground v.1.15,2013-02-08 07:54:00,
2013-02-08 00:56:00,26.0,13.2,30.22,ESE,105,0.0,0.0,58,0.00,,,0.00,Wunderground v.1.15,2013-02-08 07:56:00,
2013-02-08 00:58:00,26.0,13.2,30.22,ESE,105,0.0,0.0,58,0.00,,,0.00,Wunderground v.1.15,2013-02-08 07:58:00,
2013-02-08 01:00:00,25.8,13.4,30.22,ESE,105,0.0,0.0,59,0.00,,,0.00,Wunderground v.1.15,2013-02-08 08:00:00,
2013-02-08 01:02:00,25.7,13.3,30.22,ESE,105,0.0,0.0,59,0.00,,,0.00,Wunderground v.1.15,2013-02-08 08:02:00,
2013-02-08 01:04:00,25.7,12.9,30.22,ESE,105,0.0,0.0,58,0.00,,,0.00,Wunderground v.1.15,2013-02-08 08:04:00,
2013-02-08 01:06:00,25.8,13.0,30.22,ESE,105,0.0,0.0,58,0.00,,,0.00,Wunderground v.1.15,2013-02-08 08:06:00,
2013-02-08 01:12:00,26.1,12.9,30.22,ESE,105,0.0,0.0,57,0.00,,,0.00,Wunderground v.1.15,2013-02-08 08:12:00,
2013-02-08 01:14:00,26.1,13.3,30.22,ESE,105,0.0,0.0,58,0.00,,,0.00,Wunderground v.1.15,2013-02-08 08:14:00,
2013-02-08 01:16:00,26.0,13.2,30.19,ESE,105,0.0,0.0,58,0.00,,,0.00,Wunderground v.1.15,2013-02-08 08:16:00,
2013-02-08 01:18:00,25.7,12.9,30.19,ESE,105,0.0,0.0,58,0.00,,,0.00,Wunderground v.1.15,2013-02-08 08:18:00,
2013-02-08 01:20:00,25.6,12.9,30.19,ESE,105,0.0,0.0,58,0.00,,,0.00,Wunderground v.1.15,2013-02-08 08:20:00,
2013-02-08 01:26:00,25.1,13.2,30.19,ESE,105,0.0,0.0,60,0.00,,,0.00,Wunderground v.1.15,2013-02-08 08:26:00,
2013-02-08 01:28:00,25.1,12.8,30.19,ESE,105,0.0,0.0,59,0.00,,,0.00,Wunderground v.1.15,2013-02-08 08:28:00,
2013-02-08 01:30:00,25.1,13.2,30.19,ESE,105,0.0,0.0,60,0.00,,,0.00,Wunderground v.1.15,2013-02-08 08:30:00,
2013-02-08 01:34:00,25.1,13.2,30.19,ESE,105,0.0,2.0,60,0.00,,,0.00,Wunderground v.1.15,2013-02-08 08:34:00,
2013-02-08 01:36:00,25.1,12.8,30.19,ESE,105,1.0,2.0,59,0.00,,,0.00,Wunderground v.1.15,2013-02-08 08:36:00,
2013-02-08 01:40:00,25.0,13.1,30.19,ESE,105,0.0,0.0,60,0.00,,,0.00,Wunderground v.1.15,2013-02-08 08:40:00,
2013-02-08 01:42:00,24.8,12.9,30.19,ESE,105,0.0,0.0,60,0.00,,,0.00,Wunderground v.1.15,2013-02-08 08:42:00,
2013-02-08 01:44:00,24.8,13.2,30.19,ESE,105,0.0,0.0,61,0.00,,,0.00,Wunderground v.1.15,2013-02-08 08:44:00,
2013-02-08 01:48:00,24.7,13.1,30.19,ESE,105,0.0,0.0,61,0.00,,,0.00,Wunderground v.1.15,2013-02-08 08:48:00,
2013-02-08 01:50:00,24.7,13.1,30.19,ESE,105,0.0,0.0,61,0.00,,,0.00,Wunderground v.1.15,2013-02-08 08:50:00,
2013-02-08 01:52:00,24.5,13.0,30.19,ESE,105,0.0,0.0,61,0.00,,,0.00,Wunderground v.1.15,2013-02-08 08:52:00,
2013-02-08 01:54:00,24.4,13.2,30.19,ESE,105,0.0,0.0,62,0.00,,,0.00,Wunderground v.1.15,2013-02-08 08:54:00,
2013-02-08 01:56:00,24.4,13.2,30.19,ESE,105,0.0,0.0,62,0.00,,,0.00,Wunderground v.1.15,2013-02-08 08:56:00,
2013-02-08 02:00:00,24.2,13.0,30.21,ESE,105,0.0,0.0,62,0.00,,,0.00,Wunderground v.1.15,2013-02-08 09:00:00,
2013-02-08 02:02:00,24.1,12.9,30.21,ESE,105,0.0,0.0,62,0.00,,,0.00,Wunderground v.1.15,2013-02-08 09:02:00,
2013-02-08 02:06:00,24.1,12.9,30.21,ESE,105,0.0,0.0,62,0.00,,,0.00,Wunderground v.1.15,2013-02-08 09:06:00,
2013-02-08 02:08:00,23.9,12.8,30.21,ESE,105,0.0,0.0,62,0.00,,,0.00,Wunderground v.1.15,2013-02-08 09:08:00,
2013-02-08 02:10:00,23.9,12.8,30.21,ESE,105,0.0,0.0,62,0.00,,,0.00,Wunderground v.1.15,2013-02-08 09:10:00,
2013-02-08 02:14:00,23.9,13.1,30.21,ESE,105,0.0,0.0,63,0.00,,,0.00,Wunderground v.1.15,2013-02-08 09:14:00,
2013-02-08 02:16:00,23.8,13.0,30.20,ESE,105,0.0,0.0,63,0.00,,,0.00,Wunderground v.1.15,2013-02-08 09:16:00,
2013-02-08 02:20:00,23.9,13.1,30.20,ESE,105,0.0,1.0,63,0.00,,,0.00,Wunderground v.1.15,2013-02-08 09:20:00,
2013-02-08 02:22:00,24.1,13.3,30.20,ESE,105,0.0,1.0,63,0.00,,,0.00,Wunderground v.1.15,2013-02-08 09:22:00,
2013-02-08 02:26:00,24.4,13.2,30.20,ESE,105,0.0,1.0,62,0.00,,,0.00,Wunderground v.1.15,2013-02-08 09:26:00,
2013-02-08 02:28:00,24.4,13.2,30.20,ESE,105,0.0,1.0,62,0.00,,,0.00,Wunderground v.1.15,2013-02-08 09:28:00,
2013-02-08 02:30:00,24.5,13.3,30.20,ESE,105,0.0,1.0,62,0.00,,,0.00,Wunderground v.1.15,2013-02-08 09:30:00,
2013-02-08 02:32:00,24.7,13.5,30.17,ESE,105,0.0,1.0,62,0.00,,,0.00,Wunderground v.1.15,2013-02-08 09:32:00,
2013-02-08 02:34:00,24.7,13.5,30.17,ESE,105,0.0,1.0,62,0.00,,,0.00,Wunderground v.1.15,2013-02-08 09:34:00,
2013-02-08 02:40:00,24.8,13.6,30.17,ESE,105,0.0,1.0,62,0.00,,,0.00,Wunderground v.1.15,2013-02-08 09:40:00,
2013-02-08 02:42:00,24.8,13.6,30.17,ESE,105,0.0,1.0,62,0.00,,,0.00,Wunderground v.1.15,2013-02-08 09:42:00,
2013-02-08 02:44:00,25.0,13.4,30.17,ESE,105,0.0,1.0,61,0.00,,,0.00,Wunderground v.1.15,2013-02-08 09:44:00,
2013-02-08 02:46:00,25.0,13.4,30.16,ESE,105,0.0,1.0,61,0.00,,,0.00,Wunderground v.1.15,2013-02-08 09:46:00,
2013-02-08 02:50:00,25.0,13.8,30.16,ESE,105,0.0,0.0,62,0.00,,,0.00,Wunderground v.1.15,2013-02-08 09:50:00,
2013-02-08 02:52:00,24.8,13.6,30.16,ESE,105,0.0,0.0,62,0.00,,,0.00,Wunderground v.1.15,2013-02-08 09:52:00,
2013-02-08 02:54:00,24.7,13.5,30.16,ESE,105,0.0,0.0,62,0.00,,,0.00,Wunderground v.1.15,2013-02-08 09:54:00,
2013-02-08 02:56:00,24.7,13.5,30.16,ESE,105,0.0,2.0,62,0.00,,,0.00,Wunderground v.1.15,2013-02-08 09:56:00,
2013-02-08 03:00:00,25.1,13.5,30.16,East,93,1.0,1.0,61,0.00,,,0.00,Wunderground v.1.15,2013-02-08 10:00:00,
2013-02-08 03:02:00,25.3,13.7,30.15,East,93,1.0,1.0,61,0.00,,,0.00,Wunderground v.1.15,2013-02-08 10:02:00,
2013-02-08 03:04:00,25.3,13.7,30.15,SE,126,1.0,4.0,61,0.00,,,0.00,Wunderground v.1.15,2013-02-08 10:04:00,
2013-02-08 03:06:00,25.3,13.7,30.15,SE,126,1.0,4.0,61,0.00,,,0.00,Wunderground v.1.15,2013-02-08 10:06:00,
2013-02-08 03:08:00,25.3,13.7,30.15,SE,126,1.0,4.0,61,0.00,,,0.00,Wunderground v.1.15,2013-02-08 10:08:00,
2013-02-08 03:10:00,25.3,13.7,30.15,SE,136,1.0,4.0,61,0.00,,,0.00,Wunderground v.1.15,2013-02-08 10:10:00,
2013-02-08 03:12:00,25.6,13.2,30.15,SE,144,2.0,4.0,59,0.00,,,0.00,Wunderground v.1.15,2013-02-08 10:12:00,
2013-02-08 03:14:00,25.8,13.0,30.15,SE,144,2.0,4.0,58,0.00,,,0.00,Wunderground v.1.15,2013-02-08 10:14:00,
2013-02-08 03:16:00,26.1,13.3,30.12,SE,144,1.0,4.0,58,0.00,,,0.00,Wunderground v.1.15,2013-02-08 10:16:00,
2013-02-08 03:18:00,26.4,13.2,30.12,SE,144,1.0,4.0,57,0.00,,,0.00,Wunderground v.1.15,2013-02-08 10:18:00,
2013-02-08 03:20:00,26.6,13.0,30.12,SE,144,1.0,1.0,56,0.00,,,0.00,Wunderground v.1.15,2013-02-08 10:20:00,
2013-02-08 03:22:00,26.7,13.1,30.12,SE,144,1.0,1.0,56,0.00,,,0.00,Wunderground v.1.15,2013-02-08 10:22:00,
2013-02-08 03:26:00,26.9,13.3,30.12,SE,144,0.0,1.0,56,0.00,,,0.00,Wunderground v.1.15,2013-02-08 10:26:00,
2013-02-08 03:28:00,26.9,13.7,30.12,SE,144,0.0,1.0,57,0.00,,,0.00,Wunderground v.1.15,2013-02-08 10:28:00,
2013-02-08 03:30:00,26.9,13.7,30.12,SSE,167,0.0,4.0,57,0.00,,,0.00,Wunderground v.1.15,2013-02-08 10:30:00,
2013-02-08 03:32:00,27.0,13.0,30.11,SSE,167,1.0,4.0,55,0.00,,,0.00,Wunderground v.1.15,2013-02-08 10:32:00,
2013-02-08 03:34:00,27.2,13.1,30.11,SSE,167,1.0,4.0,55,0.00,,,0.00,Wunderground v.1.15,2013-02-08 10:34:00,
2013-02-08 03:36:00,27.2,13.1,30.11,SSE,167,1.0,4.0,55,0.00,,,0.00,Wunderground v.1.15,2013-02-08 10:36:00,
2013-02-08 03:40:00,27.2,13.1,30.11,ESE,113,1.0,1.0,55,0.00,,,0.00,Wunderground v.1.15,2013-02-08 10:40:00,
2013-02-08 03:42:00,27.0,13.0,30.11,ESE,113,1.0,1.0,55,0.00,,,0.00,Wunderground v.1.15,2013-02-08 10:42:00,
2013-02-08 03:44:00,27.2,13.1,30.11,ESE,109,1.0,1.0,55,0.00,,,0.00,Wunderground v.1.15,2013-02-08 10:44:00,
2013-02-08 03:46:00,27.2,13.1,30.10,ESE,109,1.0,1.0,55,0.00,,,0.00,Wunderground v.1.15,2013-02-08 10:46:00,
2013-02-08 03:50:00,27.2,13.1,30.10,ESE,109,1.0,1.0,55,0.00,,,0.00,Wunderground v.1.15,2013-02-08 10:50:00,
2013-02-08 03:52:00,27.2,12.7,30.10,ESE,108,0.0,1.0,54,0.00,,,0.00,Wunderground v.1.15,2013-02-08 10:52:00,
2013-02-08 03:54:00,27.3,13.2,30.10,ENE,69,0.0,1.0,55,0.00,,,0.00,Wunderground v.1.15,2013-02-08 10:54:00,
2013-02-08 03:58:00,27.6,13.1,30.10,SSE,152,0.0,1.0,54,0.00,,,0.00,Wunderground v.1.15,2013-02-08 10:58:00,
2013-02-08 04:00:00,27.8,13.3,30.10,ESE,104,1.0,2.0,54,0.00,,,0.00,Wunderground v.1.15,2013-02-08 11:00:00,
2013-02-08 04:04:00,28.2,13.2,30.10,East,97,1.0,2.0,53,0.00,,,0.00,Wunderground v.1.15,2013-02-08 11:04:00,
2013-02-08 04:08:00,28.2,13.2,30.10,North,355,1.0,2.0,53,0.00,,,0.00,Wunderground v.1.15,2013-02-08 11:08:00,
2013-02-08 04:10:00,28.1,13.6,30.10,North,355,1.0,1.0,54,0.00,,,0.00,Wunderground v.1.15,2013-02-08 11:10:00,
2013-02-08 04:12:00,28.1,13.6,30.10,North,355,1.0,1.0,54,0.00,,,0.00,Wunderground v.1.15,2013-02-08 11:12:00,
2013-02-08 04:14:00,27.9,13.4,30.10,North,355,1.0,1.0,54,0.00,,,0.00,Wunderground v.1.15,2013-02-08 11:14:00,
2013-02-08 04:18:00,27.6,13.1,30.10,SSE,156,0.0,1.0,54,0.00,,,0.00,Wunderground v.1.15,2013-02-08 11:18:00,
2013-02-08 04:20:00,27.8,12.9,30.10,SSE,155,0.0,0.0,53,0.00,,,0.00,Wunderground v.1.15,2013-02-08 11:20:00,
2013-02-08 04:22:00,27.9,13.0,30.10,SSE,156,0.0,0.0,53,0.00,,,0.00,Wunderground v.1.15,2013-02-08 11:22:00,
2013-02-08 04:24:00,27.9,13.0,30.10,SSE,156,0.0,0.0,53,0.00,,,0.00,Wunderground v.1.15,2013-02-08 11:24:00,
2013-02-08 04:28:00,27.9,13.0,30.10,SSE,159,0.0,2.0,53,0.00,,,0.00,Wunderground v.1.15,2013-02-08 11:28:00,
2013-02-08 04:30:00,28.1,13.1,30.10,SSE,159,1.0,1.0,53,0.00,,,0.00,Wunderground v.1.15,2013-02-08 11:30:00,
2013-02-08 04:34:00,28.4,13.0,30.09,SSE,159,1.0,1.0,52,0.00,,,0.00,Wunderground v.1.15,2013-02-08 11:34:00,
2013-02-08 04:38:00,28.5,13.1,30.09,SSE,159,1.0,1.0,52,0.00,,,0.00,Wunderground v.1.15,2013-02-08 11:38:00,
2013-02-08 04:40:00,28.5,13.1,30.09,SSE,159,0.0,0.0,52,0.00,,,0.00,Wunderground v.1.15,2013-02-08 11:40:00,
2013-02-08 04:42:00,28.5,13.1,30.09,SSE,159,0.0,0.0,52,0.00,,,0.00,Wunderground v.1.15,2013-02-08 11:42:00,
2013-02-08 04:46:00,28.5,12.6,30.09,SE,139,0.0,0.0,51,0.00,,,0.00,Wunderground v.1.15,2013-02-08 11:46:00,
2013-02-08 04:48:00,28.5,13.1,30.09,SE,139,0.0,0.0,52,0.00,,,0.00,Wunderground v.1.15,2013-02-08 11:48:00,
2013-02-08 04:50:00,28.5,13.1,30.09,SE,139,0.0,1.0,52,0.00,,,0.00,Wunderground v.1.15,2013-02-08 11:50:00,
2013-02-08 04:52:00,28.4,13.0,30.09,SE,139,0.0,1.0,52,0.00,,,0.00,Wunderground v.1.15,2013-02-08 11:52:00,
2013-02-08 04:54:00,28.2,12.8,30.09,SE,139,0.0,1.0,52,0.00,,,0.00,Wunderground v.1.15,2013-02-08 11:54:00,
2013-02-08 04:56:00,28.2,13.2,30.09,SE,139,0.0,1.0,53,0.00,,,0.00,Wunderground v.1.15,2013-02-08 11:56:00,
2013-02-08 05:00:00,27.9,12.5,30.09,SE,139,0.0,0.0,52,0.00,,,0.00,Wunderground v.1.15,2013-02-08 12:00:00,
2013-02-08 05:04:00,27.9,12.5,30.09,SE,139,0.0,1.0,52,0.00,,,0.00,Wunderground v.1.15,2013-02-08 12:04:00,
2013-02-08 05:08:00,28.1,12.3,30.09,SE,139,0.0,1.0,51,0.00,,,0.00,Wunderground v.1.15,2013-02-08 12:08:00,
2013-02-08 05:12:00,28.4,12.1,30.09,SE,139,0.0,0.0,50,0.00,,,0.00,Wunderground v.1.15,2013-02-08 12:12:00,
2013-02-08 05:14:00,28.4,12.1,30.09,SE,139,0.0,0.0,50,0.00,,,0.00,Wunderground v.1.15,2013-02-08 12:14:00,
2013-02-08 05:16:00,28.5,12.6,30.11,SE,139,0.0,1.0,51,0.00,,,0.00,Wunderground v.1.15,2013-02-08 12:16:00,
2013-02-08 05:18:00,28.7,12.8,30.11,SSE,148,0.0,1.0,51,0.00,,,0.00,Wunderground v.1.15,2013-02-08 12:18:00,
2013-02-08 05:20:00,28.8,12.9,30.11,SSE,148,0.0,0.0,51,0.00,,,0.00,Wunderground v.1.15,2013-02-08 12:20:00,
2013-02-08 05:22:00,28.8,12.9,30.11,SSE,148,0.0,0.0,51,0.00,,,0.00,Wunderground v.1.15,2013-02-08 12:22:00,
2013-02-08 05:24:00,29.1,13.2,30.11,SSE,148,0.0,0.0,51,0.00,,,0.00,Wunderground v.1.15,2013-02-08 12:24:00,
2013-02-08 05:26:00,29.1,12.8,30.11,SSE,148,0.0,0.0,50,0.00,,,0.00,Wunderground v.1.15,2013-02-08 12:26:00,
2013-02-08 05:30:00,29.1,12.3,30.11,SSE,148,0.0,0.0,49,0.00,,,0.00,Wunderground v.1.15,2013-02-08 12:30:00,
2013-02-08 05:32:00,29.5,11.7,30.10,East,82,0.0,0.0,47,0.00,,,0.00,Wunderground v.1.15,2013-02-08 12:32:00,
2013-02-08 05:34:00,30.3,11.5,30.10,East,86,1.0,2.0,45,0.00,,,0.00,Wunderground v.1.15,2013-02-08 12:34:00,
2013-02-08 05:38:00,31.5,11.5,30.10,ESE,109,2.0,2.0,43,0.00,,,0.00,Wunderground v.1.15,2013-02-08 12:38:00,
2013-02-08 05:40:00,31.9,11.9,30.10,ESE,109,2.0,2.0,43,0.00,,,0.00,Wunderground v.1.15,2013-02-08 12:40:00,
2013-02-08 05:44:00,32.2,11.6,30.10,ESE,109,1.0,2.0,42,0.00,,,0.00,Wunderground v.1.15,2013-02-08 12:44:00,
2013-02-08 05:46:00,32.5,11.4,30.07,ESE,117,1.0,4.0,41,0.00,,,0.00,Wunderground v.1.15,2013-02-08 12:46:00,
2013-02-08 05:48:00,32.9,11.7,30.07,ESE,117,1.0,4.0,41,0.00,,,0.00,Wunderground v.1.15,2013-02-08 12:48:00,
2013-02-08 05:50:00,33.1,11.9,30.07,ESE,117,1.0,1.0,41,0.00,,,0.00,Wunderground v.1.15,2013-02-08 12:50:00,
2013-02-08 05:52:00,33.1,11.4,30.07,ESE,117,1.0,1.0,40,0.00,,,0.00,Wunderground v.1.15,2013-02-08 12:52:00,
2013-02-08 05:54:00,33.1,11.4,30.07,ESE,117,1.0,1.0,40,0.00,,,0.00,Wunderground v.1.15,2013-02-08 12:54:00,
2013-02-08 05:56:00,32.9,11.7,30.07,ESE,117,0.0,1.0,41,0.00,,,0.00,Wunderground v.1.15,2013-02-08 12:56:00,
2013-02-08 05:58:00,32.8,12.2,30.07,ESE,117,0.0,1.0,42,0.00,,,0.00,Wunderground v.1.15,2013-02-08 12:58:00,
2013-02-08 06:04:00,32.4,11.8,30.05,ESE,117,0.0,1.0,42,0.00,,,0.00,Wunderground v.1.15,2013-02-08 13:04:00,
2013-02-08 06:06:00,32.4,11.8,30.05,SSE,160,0.0,4.0,42,0.00,,,0.00,Wunderground v.1.15,2013-02-08 13:06:00,
2013-02-08 06:08:00,32.5,12.5,30.05,SSE,147,1.0,4.0,43,0.00,,,0.00,Wunderground v.1.15,2013-02-08 13:08:00,
2013-02-08 06:12:00,33.1,12.5,30.05,South,183,2.0,5.0,42,0.00,,,0.00,Wunderground v.1.15,2013-02-08 13:12:00,
2013-02-08 06:14:00,33.4,12.7,30.05,SSW,198,3.0,8.0,42,0.00,,,0.00,Wunderground v.1.15,2013-02-08 13:14:00,
2013-02-08 06:18:00,33.4,12.2,30.09,South,179,5.0,8.0,41,0.00,,,0.00,Wunderground v.1.15,2013-02-08 13:18:00,
2013-02-08 06:20:00,33.5,11.7,30.09,South,176,5.0,6.0,40,0.00,,,0.00,Wunderground v.1.15,2013-02-08 13:20:00,
2013-02-08 06:24:00,33.8,11.4,30.09,ESE,112,4.0,6.0,39,0.00,,,0.00,Wunderground v.1.15,2013-02-08 13:24:00,
2013-02-08 06:28:00,33.7,11.3,30.09,ESE,112,2.0,6.0,39,0.00,,,0.00,Wunderground v.1.15,2013-02-08 13:28:00,
2013-02-08 06:30:00,33.7,11.3,30.09,SE,136,1.0,2.0,39,0.00,,,0.00,Wunderground v.1.15,2013-02-08 13:30:00,
2013-02-08 06:34:00,33.8,12.0,30.07,SSE,150,1.0,3.0,40,0.00,,,0.00,Wunderground v.1.15,2013-02-08 13:34:00,
2013-02-08 06:36:00,33.8,12.0,30.07,SSE,150,1.0,3.0,40,0.00,,,0.00,Wunderground v.1.15,2013-02-08 13:36:00,
2013-02-08 06:40:00,33.7,12.5,30.07,SSE,150,1.0,1.0,41,0.00,,,0.00,Wunderground v.1.15,2013-02-08 13:40:00,
2013-02-08 06:42:00,33.5,12.3,30.07,SSE,150,0.0,1.0,41,0.00,,,0.00,Wunderground v.1.15,2013-02-08 13:42:00,
2013-02-08 06:44:00,33.4,12.2,30.07,SSE,150,0.0,1.0,41,0.00,,,0.00,Wunderground v.1.15,2013-02-08 13:44:00,
2013-02-08 06:46:00,33.7,11.3,30.07,South,176,1.0,3.0,39,0.00,,,0.00,Wunderground v.1.15,2013-02-08 13:46:00,
2013-02-08 06:48:00,33.8,12.0,30.07,SW,220,1.0,3.0,40,0.00,,,0.00,Wunderground v.1.15,2013-02-08 13:48:00,
2013-02-08 06:50:00,33.8,12.6,30.07,SSW,212,1.0,5.0,41,0.00,,,0.00,Wunderground v.1.15,2013-02-08 13:50:00,
2013-02-08 06:54:00,33.5,12.3,30.07,SSW,203,3.0,5.0,41,0.00,,,0.00,Wunderground v.1.15,2013-02-08 13:54:00,
2013-02-08 06:56:00,33.5,12.8,30.07,SSW,203,3.0,5.0,42,0.00,,,0.00,Wunderground v.1.15,2013-02-08 13:56:00,
2013-02-08 06:58:00,33.5,12.3,30.07,SSW,201,3.0,5.0,41,0.00,,,0.00,Wunderground v.1.15,2013-02-08 13:58:00,
2013-02-08 07:00:00,33.5,12.8,30.06,SSW,192,3.0,3.0,42,0.00,,,0.00,Wunderground v.1.15,2013-02-08 14:00:00,
2013-02-08 07:02:00,33.5,12.8,30.06,SSW,192,3.0,3.0,42,0.00,,,0.00,Wunderground v.1.15,2013-02-08 14:02:00,
2013-02-08 07:04:00,33.4,12.7,30.06,SSW,192,2.0,3.0,42,0.00,,,0.00,Wunderground v.1.15,2013-02-08 14:04:00,
2013-02-08 07:06:00,33.2,13.1,30.06,SSW,192,2.0,3.0,43,0.00,,,0.00,Wunderground v.1.15,2013-02-08 14:06:00,
2013-02-08 07:08:00,33.2,13.1,30.06,SSE,153,1.0,3.0,43,0.00,,,0.00,Wunderground v.1.15,2013-02-08 14:08:00,
2013-02-08 07:10:00,33.2,12.6,30.06,SSE,153,1.0,1.0,42,0.00,,,0.00,Wunderground v.1.15,2013-02-08 14:10:00,
2013-02-08 07:12:00,33.5,12.8,30.06,WSW,254,1.0,1.0,42,0.00,,,0.00,Wunderground v.1.15,2013-02-08 14:12:00,
2013-02-08 07:16:00,34.0,11.6,30.08,NNE,17,1.0,3.0,39,0.00,,,0.00,Wunderground v.1.15,2013-02-08 14:16:00,
2013-02-08 07:18:00,34.3,13.0,30.08,NNE,17,1.0,3.0,41,0.00,,,0.00,Wunderground v.1.15,2013-02-08 14:18:00,
2013-02-08 07:20:00,34.1,13.4,30.08,NNE,17,1.0,1.0,42,0.00,,,0.00,Wunderground v.1.15,2013-02-08 14:20:00,
2013-02-08 07:22:00,34.1,13.4,30.08,NNE,17,0.0,1.0,42,0.00,,,0.00,Wunderground v.1.15,2013-02-08 14:22:00,
2013-02-08 07:24:00,34.0,12.7,30.08,West,276,0.0,1.0,41,0.00,,,0.00,Wunderground v.1.15,2013-02-08 14:24:00,
2013-02-08 07:26:00,34.0,12.7,30.08,West,277,0.0,1.0,41,0.00,,,0.00,Wunderground v.1.15,2013-02-08 14:26:00,
2013-02-08 07:28:00,34.1,12.3,30.08,West,276,0.0,1.0,40,0.00,,,0.00,Wunderground v.1.15,2013-02-08 14:28:00,
2013-02-08 07:30:00,34.1,12.8,30.08,West,276,0.0,0.0,41,0.00,,,0.00,Wunderground v.1.15,2013-02-08 14:30:00,
2013-02-08 07:32:00,34.1,12.8,30.09,West,276,0.0,1.0,41,0.00,,,0.00,Wunderground v.1.15,2013-02-08 14:32:00,
2013-02-08 07:36:00,34.4,12.5,30.09,ESE,118,0.0,4.0,40,0.00,,,0.00,Wunderground v.1.15,2013-02-08 14:36:00,
2013-02-08 07:38:00,34.9,13.0,30.09,East,95,1.0,4.0,40,0.00,,,0.00,Wunderground v.1.15,2013-02-08 14:38:00,
2013-02-08 07:40:00,35.3,12.8,30.09,East,82,1.0,2.0,39,0.00,,,0.00,Wunderground v.1.15,2013-02-08 14:40:00,
2013-02-08 07:44:00,36.0,12.8,30.09,ESE,117,3.0,9.0,38,0.00,,,0.00,Wunderground v.1.15,2013-02-08 14:44:00,
2013-02-08 07:48:00,36.6,12.1,30.05,ESE,107,4.0,9.0,36,0.00,,,0.00,Wunderground v.1.15,2013-02-08 14:48:00,
2013-02-08 07:50:00,36.9,12.4,30.05,ESE,106,6.0,6.0,36,0.00,,,0.00,Wunderground v.1.15,2013-02-08 14:50:00,
2013-02-08 07:54:00,37.3,12.7,30.05,ESE,109,6.0,7.0,36,0.00,,,0.00,Wunderground v.1.15,2013-02-08 14:54:00,
2013-02-08 07:56:00,37.3,12.7,30.05,East,98,6.0,7.0,36,0.00,,,0.00,Wunderground v.1.15,2013-02-08 14:56:00,
2013-02-08 07:58:00,37.5,12.3,30.05,East,79,6.0,7.0,35,0.00,,,0.00,Wunderground v.1.15,2013-02-08 14:58:00,
2013-02-08 08:02:00,37.8,12.6,30.03,East,94,4.0,4.0,35,0.00,,,0.00,Wunderground v.1.15,2013-02-08 15:02:00,
2013-02-08 08:06:00,37.9,12.0,30.03,East,88,5.0,12.0,34,0.00,,,0.00,Wunderground v.1.15,2013-02-08 15:06:00,
2013-02-08 08:08:00,38.0,12.7,30.03,ENE,70,4.0,12.0,35,0.00,,,0.00,Wunderground v.1.15,2013-02-08 15:08:00,
2013-02-08 08:12:00,38.2,12.3,30.03,ESE,112,5.0,5.0,34,0.00,,,0.00,Wunderground v.1.15,2013-02-08 15:12:00,
2013-02-08 08:14:00,38.3,13.0,30.03,SSE,165,4.0,5.0,35,0.00,,,0.00,Wunderground v.1.15,2013-02-08 15:14:00,
2013-02-08 08:18:00,36.6,14.5,30.06,WSW,238,4.0,5.0,40,0.00,,,0.00,Wunderground v.1.15,2013-02-08 15:18:00,
2013-02-08 08:20:00,35.2,14.9,30.06,WSW,238,4.0,5.0,43,0.00,,,0.00,Wunderground v.1.15,2013-02-08 15:20:00,
2013-02-08 08:22:00,34.1,14.9,30.06,WSW,238,3.0,3.0,45,0.00,,,0.00,Wunderground v.1.15,2013-02-08 15:22:00,
2013-02-08 08:26:00,33.4,14.3,30.06,WSW,238,2.0,4.0,45,0.00,,,0.00,Wunderground v.1.15,2013-02-08 15:26:00,
2013-02-08 08:28:00,33.7,14.6,30.06,SSW,198,2.0,4.0,45,0.00,,,0.00,Wunderground v.1.15,2013-02-08 15:28:00,
2013-02-08 08:32:00,34.4,13.6,30.09,ESE,114,3.0,3.0,42,0.00,,,0.00,Wunderground v.1.15,2013-02-08 15:32:00,
2013-02-08 08:34:00,35.2,13.8,30.09,ESE,123,3.0,4.0,41,0.00,,,0.00,Wunderground v.1.15,2013-02-08 15:34:00,
2013-02-08 08:36:00,35.8,13.2,30.09,SSE,157,4.0,4.0,39,0.00,,,0.00,Wunderground v.1.15,2013-02-08 15:36:00,
2013-02-08 08:40:00,36.3,13.1,30.09,SE,138,4.0,4.0,38,0.00,,,0.00,Wunderground v.1.15,2013-02-08 15:40:00,
2013-02-08 08:44:00,37.0,13.1,30.09,South,171,4.0,10.0,37,0.00,,,0.00,Wunderground v.1.15,2013-02-08 15:44:00,
2013-02-08 08:46:00,37.2,13.3,30.06,South,173,4.0,10.0,37,0.00,,,0.00,Wunderground v.1.15,2013-02-08 15:46:00,
2013-02-08 08:48:00,37.3,13.4,30.06,SE,127,4.0,10.0,37,0.00,,,0.00,Wunderground v.1.15,2013-02-08 15:48:00,
2013-02-08 08:52:00,38.0,13.4,30.06,ESE,123,4.0,5.0,36,0.00,,,0.00,Wunderground v.1.15,2013-02-08 15:52:00,
2013-02-08 08:54:00,38.5,13.2,30.06,SE,134,4.0,5.0,35,0.00,,,0.00,Wunderground v.1.15,2013-02-08 15:54:00,
2013-02-08 08:58:00,39.2,13.8,30.06,SE,140,4.0,9.0,35,0.00,,,0.00,Wunderground v.1.15,2013-02-08 15:58:00,
2013-02-08 09:00:00,39.5,14.1,30.04,ESE,115,4.0,4.0,35,0.00,,,0.00,Wunderground v.1.15,2013-02-08 16:00:00,
2013-02-08 09:06:00,40.6,13.7,30.04,ENE,67,2.0,4.0,33,0.00,,,0.00,Wunderground v.1.15,2013-02-08 16:06:00,
2013-02-08 09:08:00,40.9,13.3,30.04,ENE,67,2.0,4.0,32,0.00,,,0.00,Wunderground v.1.15,2013-02-08 16:08:00,
2013-02-08 09:10:00,41.2,12.8,30.04,ENE,71,1.0,1.0,31,0.00,,,0.00,Wunderground v.1.15,2013-02-08 16:10:00,
2013-02-08 09:12:00,41.6,13.2,30.04,ENE,65,1.0,1.0,31,0.00,,,0.00,Wunderground v.1.15,2013-02-08 16:12:00,
2013-02-08 09:14:00,41.9,13.4,30.04,ENE,65,1.0,1.0,31,0.00,,,0.00,Wunderground v.1.15,2013-02-08 16:14:00,
2013-02-08 09:16:00,42.2,13.7,30.02,ESE,115,1.0,5.0,31,0.00,,,0.00,Wunderground v.1.15,2013-02-08 16:16:00,
2013-02-08 09:18:00,42.5,12.4,30.02,East,87,2.0,5.0,29,0.00,,,0.00,Wunderground v.1.15,2013-02-08 16:18:00,
2013-02-08 09:20:00,42.6,12.5,30.02,East,87,2.0,5.0,29,0.00,,,0.00,Wunderground v.1.15,2013-02-08 16:20:00,
2013-02-08 09:22:00,42.8,12.7,30.02,ESE,117,3.0,5.0,29,0.00,,,0.00,Wunderground v.1.15,2013-02-08 16:22:00,
2013-02-08 09:28:00,43.1,11.3,30.02,ENE,62,6.0,6.0,27,0.00,,,0.00,Wunderground v.1.15,2013-02-08 16:28:00,
2013-02-08 09:34:00,43.5,12.5,30.00,ESE,104,7.0,8.0,28,0.00,,,0.00,Wunderground v.1.15,2013-02-08 16:34:00,
2013-02-08 09:38:00,43.8,11.9,30.00,East,85,7.0,10.0,27,0.00,,,0.00,Wunderground v.1.15,2013-02-08 16:38:00,
2013-02-08 09:40:00,43.9,12.8,30.00,ESE,119,6.0,10.0,28,0.00,,,0.00,Wunderground v.1.15,2013-02-08 16:40:00,
2013-02-08 09:42:00,44.1,12.2,30.00,ESE,105,6.0,6.0,27,0.00,,,0.00,Wunderground v.1.15,2013-02-08 16:42:00,
2013-02-08 09:44:00,44.2,13.1,30.00,East,92,6.0,6.0,28,0.00,,,0.00,Wunderground v.1.15,2013-02-08 16:44:00,
2013-02-08 09:46:00,44.2,13.1,30.00,East,100,6.0,6.0,28,0.00,,,0.00,Wunderground v.1.15,2013-02-08 16:46:00,
2013-02-08 09:48:00,44.3,13.2,30.00,ESE,107,6.0,6.0,28,0.00,,,0.00,Wunderground v.1.15,2013-02-08 16:48:00,
2013-02-08 09:50:00,44.8,13.6,30.00,SE,134,6.0,7.0,28,0.00,,,0.00,Wunderground v.1.15,2013-02-08 16:50:00,
2013-02-08 09:54:00,45.2,13.1,30.00,East,82,6.0,7.0,27,0.00,,,0.00,Wunderground v.1.15,2013-02-08 16:54:00,
2013-02-08 09:56:00,45.4,13.3,30.00,East,93,6.0,7.0,27,0.00,,,0.00,Wunderground v.1.15,2013-02-08 16:56:00,
2013-02-08 10:00:00,45.4,13.3,29.98,ENE,76,5.0,5.0,27,0.00,,,0.00,Wunderground v.1.15,2013-02-08 17:00:00,
2013-02-08 10:02:00,45.4,14.1,29.98,East,90,5.0,5.0,28,0.00,,,0.00,Wunderground v.1.15,2013-02-08 17:02:00,
2013-02-08 10:06:00,46.0,13.8,29.98,ESE,106,5.0,6.0,27,0.00,,,0.00,Wunderground v.1.15,2013-02-08 17:06:00,
2013-02-08 10:10:00,46.4,13.3,29.98,ENE,77,5.0,6.0,26,0.00,,,0.00,Wunderground v.1.15,2013-02-08 17:10:00,
2013-02-08 10:12:00,46.5,14.3,29.98,ESE,111,5.0,6.0,27,0.00,,,0.00,Wunderground v.1.15,2013-02-08 17:12:00,
2013-02-08 10:14:00,46.7,13.6,29.98,ESE,115,6.0,13.0,26,0.00,,,0.00,Wunderground v.1.15,2013-02-08 17:14:00,
2013-02-08 10:16:00,46.7,13.6,29.96,East,94,7.0,13.0,26,0.00,,,0.00,Wunderground v.1.15,2013-02-08 17:16:00,
2013-02-08 10:20:00,47.1,13.9,29.96,ESE,120,6.0,8.0,26,0.00,,,0.00,Wunderground v.1.15,2013-02-08 17:20:00,
2013-02-08 10:22:00,47.1,13.0,29.96,East,95,6.0,8.0,25,0.00,,,0.00,Wunderground v.1.15,2013-02-08 17:22:00,
2013-02-08 10:24:00,47.3,13.2,29.96,East,92,6.0,9.0,25,0.00,,,0.00,Wunderground v.1.15,2013-02-08 17:24:00,
2013-02-08 10:26:00,47.3,13.2,29.96,ENE,72,6.0,9.0,25,0.00,,,0.00,Wunderground v.1.15,2013-02-08 17:26:00,
2013-02-08 10:30:00,47.7,13.5,29.94,East,96,7.0,7.0,25,0.00,,,0.00,Wunderground v.1.15,2013-02-08 17:30:00,
2013-02-08 10:32:00,47.7,12.6,29.94,East,91,7.0,7.0,24,0.00,,,0.00,Wunderground v.1.15,2013-02-08 17:32:00,
2013-02-08 10:34:00,47.7,12.6,29.94,ESE,120,8.0,9.0,24,0.00,,,0.00,Wunderground v.1.15,2013-02-08 17:34:00,
2013-02-08 10:36:00,47.7,12.6,29.94,East,100,8.0,9.0,24,0.00,,,0.00,Wunderground v.1.15,2013-02-08 17:36:00,
2013-02-08 10:38:00,47.9,13.7,29.94,SE,125,8.0,9.0,25,0.00,,,0.00,Wunderground v.1.15,2013-02-08 17:38:00,
2013-02-08 10:40:00,48.0,12.9,29.94,East,91,8.0,8.0,24,0.00,,,0.00,Wunderground v.1.15,2013-02-08 17:40:00,
2013-02-08 10:42:00,48.2,13.0,29.94,ESE,103,7.0,9.0,24,0.00,,,0.00,Wunderground v.1.15,2013-02-08 17:42:00,
2013-02-08 10:44:00,48.2,13.0,29.94,East,93,7.0,9.0,24,0.00,,,0.00,Wunderground v.1.15,2013-02-08 17:44:00,
2013-02-08 10:48:00,48.5,12.3,29.94,ESE,117,6.0,9.0,23,0.00,,,0.00,Wunderground v.1.15,2013-02-08 17:48:00,
2013-02-08 10:50:00,48.8,12.6,29.94,East,98,6.0,6.0,23,0.00,,,0.00,Wunderground v.1.15,2013-02-08 17:50:00,
2013-02-08 10:54:00,49.2,12.9,29.94,ESE,111,5.0,6.0,23,0.00,,,0.00,Wunderground v.1.15,2013-02-08 17:54:00,
2013-02-08 10:56:00,49.5,12.2,29.94,ESE,115,5.0,6.0,22,0.00,,,0.00,Wunderground v.1.15,2013-02-08 17:56:00,
2013-02-08 11:00:00,49.9,13.5,29.94,ESE,115,4.0,4.0,23,0.00,,,0.00,Wunderground v.1.15,2013-02-08 18:00:00,
2013-02-08 11:02:00,50.2,12.8,29.92,East,84,4.0,5.0,22,0.00,,,0.00,Wunderground v.1.15,2013-02-08 18:02:00,
2013-02-08 11:06:00,50.8,12.2,29.92,ESE,121,3.0,5.0,21,0.00,,,0.00,Wunderground v.1.15,2013-02-08 18:06:00,
2013-02-08 11:10:00,51.1,13.5,29.92,SE,142,3.0,4.0,22,0.00,,,0.00,Wunderground v.1.15,2013-02-08 18:10:00,
2013-02-08 11:14:00,51.6,13.9,29.92,South,173,4.0,7.0,22,0.00,,,0.00,Wunderground v.1.15,2013-02-08 18:14:00,
2013-02-08 11:16:00,51.6,12.9,29.90,SSE,157,4.0,7.0,21,0.00,,,0.00,Wunderground v.1.15,2013-02-08 18:16:00,
2013-02-08 11:18:00,51.7,14.0,29.90,SSE,168,4.0,7.0,22,0.00,,,0.00,Wunderground v.1.15,2013-02-08 18:18:00,
2013-02-08 11:20:00,51.7,14.0,29.90,ESE,121,5.0,5.0,22,0.00,,,0.00,Wunderground v.1.15,2013-02-08 18:20:00,
2013-02-08 11:24:00,52.0,14.3,29.90,ESE,121,5.0,5.0,22,0.00,,,0.00,Wunderground v.1.15,2013-02-08 18:24:00,
2013-02-08 11:26:00,52.3,14.5,29.90,SSE,161,4.0,5.0,22,0.00,,,0.00,Wunderground v.1.15,2013-02-08 18:26:00,
2013-02-08 11:28:00,52.3,14.5,29.90,SSE,150,5.0,6.0,22,0.00,,,0.00,Wunderground v.1.15,2013-02-08 18:28:00,
2013-02-08 11:34:00,52.6,15.8,29.88,SSE,157,5.0,5.0,23,0.00,,,0.00,Wunderground v.1.15,2013-02-08 18:34:00,
2013-02-08 11:38:00,52.8,13.9,29.88,South,170,6.0,6.0,21,0.00,,,0.00,Wunderground v.1.15,2013-02-08 18:38:00,
2013-02-08 11:40:00,52.8,13.9,29.88,South,176,6.0,6.0,21,0.00,,,0.00,Wunderground v.1.15,2013-02-08 18:40:00,
2013-02-08 11:42:00,52.8,12.8,29.88,SSE,168,6.0,6.0,20,0.00,,,0.00,Wunderground v.1.15,2013-02-08 18:42:00,
2013-02-08 11:44:00,52.5,13.6,29.88,SSE,150,6.0,6.0,21,0.00,,,0.00,Wunderground v.1.15,2013-02-08 18:44:00,
2013-02-08 11:46:00,52.5,14.7,29.87,SSW,194,6.0,10.0,22,0.00,,,0.00,Wunderground v.1.15,2013-02-08 18:46:00,
2013-02-08 11:48:00,52.5,15.7,29.87,SSE,147,6.0,10.0,23,0.00,,,0.00,Wunderground v.1.15,2013-02-08 18:48:00,
2013-02-08 11:50:00,52.8,14.9,29.87,SSE,151,6.0,10.0,22,0.00,,,0.00,Wunderground v.1.15,2013-02-08 18:50:00,
2013-02-08 11:54:00,52.9,15.0,29.87,SE,137,7.0,7.0,22,0.00,,,0.00,Wunderground v.1.15,2013-02-08 18:54:00,
2013-02-08 11:56:00,52.9,14.0,29.87,ESE,119,7.0,7.0,21,0.00,,,0.00,Wunderground v.1.15,2013-02-08 18:56:00,
2013-02-08 11:58:00,52.9,14.0,29.87,SE,140,7.0,7.0,21,0.00,,,0.00,Wunderground v.1.15,2013-02-08 18:58:00,
2013-02-08 12:02:00,53.1,13.0,29.86,SSE,156,7.0,13.0,20,0.00,,,0.00,Wunderground v.1.15,2013-02-08 19:02:00,
2013-02-08 12:04:00,52.9,12.9,29.86,SSE,168,8.0,13.0,20,0.00,,,0.00,Wunderground v.1.15,2013-02-08 19:04:00,
2013-02-08 12:08:00,53.2,15.3,29.86,SSW,211,7.0,13.0,22,0.00,,,0.00,Wunderground v.1.15,2013-02-08 19:08:00,
2013-02-08 12:12:00,53.1,15.2,29.86,South,189,8.0,8.0,22,0.00,,,0.00,Wunderground v.1.15,2013-02-08 19:12:00,
2013-02-08 12:14:00,53.2,15.3,29.86,SE,136,7.0,8.0,22,0.00,,,0.00,Wunderground v.1.15,2013-02-08 19:14:00,
2013-02-08 12:16:00,53.2,15.3,29.87,SSE,153,7.0,8.0,22,0.00,,,0.00,Wunderground v.1.15,2013-02-08 19:16:00,
2013-02-08 12:18:00,53.2,14.2,29.87,South,184,7.0,8.0,21,0.00,,,0.00,Wunderground v.1.15,2013-02-08 19:18:00,
2013-02-08 12:20:00,53.3,14.3,29.87,SSW,192,7.0,9.0,21,0.00,,,0.00,Wunderground v.1.15,2013-02-08 19:20:00,
2013-02-08 12:26:00,53.5,12.2,29.87,South,187,7.0,11.0,19,0.00,,,0.00,Wunderground v.1.15,2013-02-08 19:26:00,
2013-02-08 12:28:00,53.5,14.5,29.87,ESE,123,6.0,11.0,21,0.00,,,0.00,Wunderground v.1.15,2013-02-08 19:28:00,
2013-02-08 12:32:00,53.6,16.6,29.84,SE,135,6.0,10.0,23,0.00,,,0.00,Wunderground v.1.15,2013-02-08 19:32:00,
2013-02-08 12:34:00,53.3,15.4,29.84,South,174,6.0,10.0,22,0.00,,,0.00,Wunderground v.1.15,2013-02-08 19:34:00,
2013-02-08 12:38:00,53.2,14.2,29.84,SSW,202,6.0,10.0,21,0.00,,,0.00,Wunderground v.1.15,2013-02-08 19:38:00,
2013-02-08 12:40:00,53.1,14.1,29.84,SE,141,6.0,10.0,21,0.00,,,0.00,Wunderground v.1.15,2013-02-08 19:40:00,
2013-02-08 12:42:00,53.1,14.1,29.84,ESE,123,6.0,6.0,21,0.00,,,0.00,Wunderground v.1.15,2013-02-08 19:42:00,
2013-02-08 12:44:00,53.1,14.1,29.84,SE,124,5.0,6.0,21,0.00,,,0.00,Wunderground v.1.15,2013-02-08 19:44:00,
2013-02-08 12:46:00,53.3,12.0,29.85,South,171,4.0,6.0,19,0.00,,,0.00,Wunderground v.1.15,2013-02-08 19:46:00,
2013-02-08 12:48:00,53.3,12.0,29.85,SSE,153,5.0,6.0,19,0.00,,,0.00,Wunderground v.1.15,2013-02-08 19:48:00,
2013-02-08 12:52:00,53.5,12.2,29.85,SSE,165,4.0,4.0,19,0.00,,,0.00,Wunderground v.1.15,2013-02-08 19:52:00,
2013-02-08 12:56:00,53.6,12.3,29.85,SSE,161,4.0,4.0,19,0.00,,,0.00,Wunderground v.1.15,2013-02-08 19:56:00,
2013-02-08 13:02:00,53.9,15.9,29.82,SE,127,4.0,5.0,22,0.00,,,0.00,Wunderground v.1.15,2013-02-08 20:02:00,
2013-02-08 13:06:00,53.9,13.7,29.82,SSW,210,5.0,5.0,20,0.00,,,0.00,Wunderground v.1.15,2013-02-08 20:06:00,
2013-02-08 13:08:00,54.2,13.9,29.82,SSW,205,5.0,5.0,20,0.00,,,0.00,Wunderground v.1.15,2013-02-08 20:08:00,
2013-02-08 13:10:00,53.9,11.3,29.82,SSW,192,5.0,6.0,18,0.00,,,0.00,Wunderground v.1.15,2013-02-08 20:10:00,
2013-02-08 13:14:00,53.6,11.0,29.82,SSW,198,5.0,10.0,18,0.00,,,0.00,Wunderground v.1.15,2013-02-08 20:14:00,
2013-02-08 13:16:00,53.9,10.0,29.83,WSW,238,6.0,10.0,17,0.00,,,0.00,Wunderground v.1.15,2013-02-08 20:16:00,
2013-02-08 13:18:00,54.1,8.8,29.83,SSW,205,7.0,10.0,16,0.00,,,0.00,Wunderground v.1.15,2013-02-08 20:18:00,
2013-02-08 13:20:00,54.1,8.8,29.83,SW,222,7.0,10.0,16,0.00,,,0.00,Wunderground v.1.15,2013-02-08 20:20:00,
2013-02-08 13:24:00,54.2,12.8,29.83,SSW,208,9.0,12.0,19,0.00,,,0.00,Wunderground v.1.15,2013-02-08 20:24:00,
2013-02-08 13:26:00,54.1,11.5,29.83,SSE,161,10.0,12.0,18,0.00,,,0.00,Wunderground v.1.15,2013-02-08 20:26:00,
2013-02-08 13:30:00,54.5,11.8,29.83,SSW,199,7.0,9.0,18,0.00,,,0.00,Wunderground v.1.15,2013-02-08 20:30:00,
2013-02-08 13:32:00,54.7,10.7,29.82,South,181,7.0,10.0,17,0.00,,,0.00,Wunderground v.1.15,2013-02-08 20:32:00,
2013-02-08 13:34:00,54.5,7.7,29.82,SSW,213,7.0,10.0,15,0.00,,,0.00,Wunderground v.1.15,2013-02-08 20:34:00,
2013-02-08 13:36:00,54.5,9.1,29.82,South,169,8.0,10.0,16,0.00,,,0.00,Wunderground v.1.15,2013-02-08 20:36:00,
2013-02-08 13:42:00,54.4,14.1,29.82,South,180,11.0,12.0,20,0.00,,,0.00,Wunderground v.1.15,2013-02-08 20:42:00,
2013-02-08 13:46:00,54.7,13.2,29.81,SSW,200,8.0,12.0,19,0.00,,,0.00,Wunderground v.1.15,2013-02-08 20:46:00,
2013-02-08 13:48:00,54.8,8.0,29.81,SSW,193,7.0,12.0,15,0.00,,,0.00,Wunderground v.1.15,2013-02-08 20:48:00,
2013-02-08 13:52:00,54.1,8.8,29.81,SSW,208,8.0,13.0,16,0.00,,,0.00,Wunderground v.1.15,2013-02-08 20:52:00,
2013-02-08 13:54:00,53.9,8.7,29.81,SSE,157,10.0,13.0,16,0.00,,,0.00,Wunderground v.1.15,2013-02-08 20:54:00,
2013-02-08 13:56:00,53.6,8.4,29.81,South,179,12.0,13.0,16,0.00,,,0.00,Wunderground v.1.15,2013-02-08 20:56:00,
2013-02-08 14:00:00,53.5,8.3,29.81,SW,215,11.0,11.0,16,0.00,,,0.00,Wunderground v.1.15,2013-02-08 21:00:00,
2013-02-08 14:02:00,53.5,9.7,29.81,SSW,198,11.0,11.0,17,0.00,,,0.00,Wunderground v.1.15,2013-02-08 21:02:00,
2013-02-08 14:06:00,53.6,8.4,29.81,SW,232,11.0,15.0,16,0.00,,,0.00,Wunderground v.1.15,2013-02-08 21:06:00,
2013-02-08 14:08:00,53.5,8.3,29.81,SSW,196,11.0,15.0,16,0.00,,,0.00,Wunderground v.1.15,2013-02-08 21:08:00,
2013-02-08 14:10:00,53.5,9.7,29.81,SW,214,12.0,12.0,17,0.00,,,0.00,Wunderground v.1.15,2013-02-08 21:10:00,
2013-02-08 14:12:00,53.5,8.3,29.81,SSW,194,12.0,14.0,16,0.00,,,0.00,Wunderground v.1.15,2013-02-08 21:12:00,
2013-02-08 14:14:00,53.6,9.8,29.81,SSW,206,11.0,14.0,17,0.00,,,0.00,Wunderground v.1.15,2013-02-08 21:14:00,
2013-02-08 14:16:00,53.8,9.9,29.79,SSW,200,10.0,14.0,17,0.00,,,0.00,Wunderground v.1.15,2013-02-08 21:16:00,
2013-02-08 14:18:00,53.6,9.8,29.79,SSW,208,11.0,14.0,17,0.00,,,0.00,Wunderground v.1.15,2013-02-08 21:18:00,
2013-02-08 14:20:00,53.6,9.8,29.79,SW,217,11.0,13.0,17,0.00,,,0.00,Wunderground v.1.15,2013-02-08 21:20:00,
2013-02-08 14:22:00,53.8,11.2,29.79,SSW,198,11.0,13.0,18,0.00,,,0.00,Wunderground v.1.15,2013-02-08 21:22:00,
2013-02-08 14:26:00,54.1,12.7,29.79,SSE,163,12.0,13.0,19,0.00,,,0.00,Wunderground v.1.15,2013-02-08 21:26:00,
2013-02-08 14:28:00,53.8,12.4,29.79,SSE,166,11.0,13.0,19,0.00,,,0.00,Wunderground v.1.15,2013-02-08 21:28:00,
2013-02-08 14:32:00,53.8,9.9,29.79,South,169,9.0,18.0,17,0.00,,,0.00,Wunderground v.1.15,2013-02-08 21:32:00,
2013-02-08 14:38:00,53.3,9.5,29.79,SW,225,11.0,18.0,17,0.00,,,0.00,Wunderground v.1.15,2013-02-08 21:38:00,
2013-02-08 14:40:00,53.3,9.5,29.79,SSW,205,12.0,18.0,17,0.00,,,0.00,Wunderground v.1.15,2013-02-08 21:40:00,
2013-02-08 14:42:00,53.5,12.2,29.79,SSW,198,13.0,13.0,19,0.00,,,0.00,Wunderground v.1.15,2013-02-08 21:42:00,
2013-02-08 14:44:00,53.8,11.2,29.79,SSW,211,12.0,13.0,18,0.00,,,0.00,Wunderground v.1.15,2013-02-08 21:44:00,
2013-02-08 14:46:00,53.8,12.4,29.78,South,186,11.0,13.0,19,0.00,,,0.00,Wunderground v.1.15,2013-02-08 21:46:00,
2013-02-08 14:50:00,53.8,11.2,29.78,South,172,9.0,13.0,18,0.00,,,0.00,Wunderground v.1.15,2013-02-08 21:50:00,
2013-02-08 14:52:00,54.1,12.7,29.78,SE,125,8.0,12.0,19,0.00,,,0.00,Wunderground v.1.15,2013-02-08 21:52:00,
2013-02-08 14:56:00,53.8,9.9,29.78,SSW,192,8.0,12.0,17,0.00,,,0.00,Wunderground v.1.15,2013-02-08 21:56:00,
2013-02-08 14:58:00,53.5,12.2,29.78,SE,143,8.0,12.0,19,0.00,,,0.00,Wunderground v.1.15,2013-02-08 21:58:00,
2013-02-08 15:04:00,52.9,11.7,29.78,SSW,198,11.0,14.0,19,0.00,,,0.00,Wunderground v.1.15,2013-02-08 22:04:00,
2013-02-08 15:06:00,52.6,11.4,29.78,South,183,12.0,14.0,19,0.00,,,0.00,Wunderground v.1.15,2013-02-08 22:06:00,
2013-02-08 15:08:00,52.5,11.4,29.78,South,188,12.0,14.0,19,0.00,,,0.00,Wunderground v.1.15,2013-02-08 22:08:00,
2013-02-08 15:12:00,52.5,12.5,29.78,SSW,196,13.0,13.0,20,0.00,,,0.00,Wunderground v.1.15,2013-02-08 22:12:00,
2013-02-08 15:14:00,52.6,12.6,29.78,SSW,209,12.0,16.0,20,0.00,,,0.00,Wunderground v.1.15,2013-02-08 22:14:00,
2013-02-08 15:16:00,52.8,12.8,29.77,SE,144,13.0,16.0,20,0.00,,,0.00,Wunderground v.1.15,2013-02-08 22:16:00,
2013-02-08 15:20:00,52.8,12.8,29.77,SSW,201,13.0,16.0,20,0.00,,,0.00,Wunderground v.1.15,2013-02-08 22:20:00,
2013-02-08 15:22:00,52.9,12.9,29.77,SSW,213,13.0,13.0,20,0.00,,,0.00,Wunderground v.1.15,2013-02-08 22:22:00,
2013-02-08 15:24:00,53.1,13.0,29.77,South,187,13.0,19.0,20,0.00,,,0.00,Wunderground v.1.15,2013-02-08 22:24:00,
2013-02-08 15:28:00,53.2,13.1,29.77,SSE,155,12.0,19.0,20,0.00,,,0.00,Wunderground v.1.15,2013-02-08 22:28:00,
2013-02-08 15:30:00,53.2,13.1,29.77,South,170,11.0,19.0,20,0.00,,,0.00,Wunderground v.1.15,2013-02-08 22:30:00,
2013-02-08 15:32:00,53.1,13.0,29.76,SSE,147,11.0,11.0,20,0.00,,,0.00,Wunderground v.1.15,2013-02-08 22:32:00,
2013-02-08 15:36:00,52.8,12.8,29.76,SSW,201,10.0,12.0,20,0.00,,,0.00,Wunderground v.1.15,2013-02-08 22:36:00,
2013-02-08 15:38:00,52.3,12.4,29.76,SE,144,10.0,12.0,20,0.00,,,0.00,Wunderground v.1.15,2013-02-08 22:38:00,
2013-02-08 15:44:00,51.4,13.8,29.76,SSW,207,10.0,17.0,22,0.00,,,0.00,Wunderground v.1.15,2013-02-08 22:44:00,
2013-02-08 15:46:00,51.6,13.9,29.76,SSW,198,10.0,17.0,22,0.00,,,0.00,Wunderground v.1.15,2013-02-08 22:46:00,
2013-02-08 15:52:00,51.7,14.0,29.76,SE,144,11.0,16.0,22,0.00,,,0.00,Wunderground v.1.15,2013-02-08 22:52:00,
2013-02-08 15:54:00,51.4,14.8,29.76,SW,214,12.0,16.0,23,0.00,,,0.00,Wunderground v.1.15,2013-02-08 22:54:00,
2013-02-08 15:56:00,51.4,15.8,29.76,South,191,12.0,16.0,24,0.00,,,0.00,Wunderground v.1.15,2013-02-08 22:56:00,
2013-02-08 16:02:00,51.1,15.5,29.77,SSW,209,12.0,12.0,24,0.00,,,0.00,Wunderground v.1.15,2013-02-08 23:02:00,
2013-02-08 16:04:00,50.7,16.1,29.77,SSW,193,12.0,19.0,25,0.00,,,0.00,Wunderground v.1.15,2013-02-08 23:04:00,
2013-02-08 16:06:00,50.2,15.7,29.77,South,188,12.0,19.0,25,0.00,,,0.00,Wunderground v.1.15,2013-02-08 23:06:00,
2013-02-08 16:08:00,50.2,15.7,29.77,SSW,201,12.0,19.0,25,0.00,,,0.00,Wunderground v.1.15,2013-02-08 23:08:00,
2013-02-08 16:12:00,50.2,16.6,29.77,South,187,12.0,14.0,26,0.00,,,0.00,Wunderground v.1.15,2013-02-08 23:12:00,
2013-02-08 16:14:00,50.1,16.5,29.77,SSW,200,11.0,14.0,26,0.00,,,0.00,Wunderground v.1.15,2013-02-08 23:14:00,
2013-02-08 16:18:00,49.8,17.1,29.77,SSW,199,10.0,14.0,27,0.00,,,0.00,Wunderground v.1.15,2013-02-08 23:18:00,
2013-02-08 16:20:00,49.6,16.9,29.77,SSW,210,10.0,14.0,27,0.00,,,0.00,Wunderground v.1.15,2013-02-08 23:20:00,
2013-02-08 16:22:00,49.5,17.7,29.77,SSW,205,9.0,9.0,28,0.00,,,0.00,Wunderground v.1.15,2013-02-08 23:22:00,
2013-02-08 16:28:00,48.6,16.9,29.77,SSW,198,9.0,14.0,28,0.00,,,0.00,Wunderground v.1.15,2013-02-08 23:28:00,
2013-02-08 16:30:00,48.5,16.0,29.78,SW,221,9.0,14.0,27,0.00,,,0.00,Wunderground v.1.15,2013-02-08 23:30:00,
2013-02-08 16:32:00,48.5,16.8,29.78,SSW,195,9.0,10.0,28,0.00,,,0.00,Wunderground v.1.15,2013-02-08 23:32:00,
2013-02-08 16:34:00,48.3,16.7,29.78,SW,219,9.0,10.0,28,0.00,,,0.00,Wunderground v.1.15,2013-02-08 23:34:00,
2013-02-08 16:40:00,48.0,17.2,29.78,SSW,194,7.0,10.0,29,0.00,,,0.00,Wunderground v.1.15,2013-02-08 23:40:00,
2013-02-08 16:42:00,47.9,17.9,29.78,SW,215,7.0,10.0,30,0.00,,,0.00,Wunderground v.1.15,2013-02-08 23:42:00,
2013-02-08 16:48:00,47.6,17.6,29.78,South,188,8.0,10.0,30,0.00,,,0.00,Wunderground v.1.15,2013-02-08 23:48:00,
2013-02-08 16:50:00,47.4,17.5,29.78,South,173,8.0,10.0,30,0.00,,,0.00,Wunderground v.1.15,2013-02-08 23:50:00,
2013-02-08 16:52:00,47.4,17.5,29.78,South,190,8.0,8.0,30,0.00,,,0.00,Wunderground v.1.15,2013-02-08 23:52:00,
2013-02-08 16:54:00,47.4,17.5,29.78,SE,142,7.0,8.0,30,0.00,,,0.00,Wunderground v.1.15,2013-02-08 23:54:00,
2013-02-08 16:58:00,47.7,16.9,29.78,South,175,8.0,8.0,29,0.00,,,0.00,Wunderground v.1.15,2013-02-08 23:58:00,
2013-02-08 17:00:00,47.7,17.7,29.78,South,171,7.0,7.0,30,0.00,,,0.00,Wunderground v.1.15,2013-02-09 00:00:00,
2013-02-08 17:04:00,47.4,18.2,29.77,SSE,153,7.0,7.0,31,0.00,,,0.00,Wunderground v.1.15,2013-02-09 00:04:00,
2013-02-08 17:06:00,47.3,18.1,29.77,SE,142,5.0,7.0,31,0.00,,,0.00,Wunderground v.1.15,2013-02-09 00:06:00,
2013-02-08 17:08:00,47.1,18.0,29.77,SSE,148,5.0,7.0,31,0.00,,,0.00,Wunderground v.1.15,2013-02-09 00:08:00,
2013-02-08 17:10:00,47.1,18.0,29.77,SSE,154,5.0,5.0,31,0.00,,,0.00,Wunderground v.1.15,2013-02-09 00:10:00,
2013-02-08 17:14:00,46.8,19.2,29.77,SSE,149,6.0,6.0,33,0.00,,,0.00,Wunderground v.1.15,2013-02-09 00:14:00,
2013-02-08 17:16:00,46.7,19.1,29.72,SE,144,6.0,6.0,33,0.00,,,0.00,Wunderground v.1.15,2013-02-09 00:16:00,
2013-02-08 17:20:00,46.5,19.6,29.72,ESE,116,4.0,4.0,34,0.00,,,0.00,Wunderground v.1.15,2013-02-09 00:20:00,
2013-02-08 17:22:00,46.5,19.6,29.72,ESE,113,4.0,4.0,34,0.00,,,0.00,Wunderground v.1.15,2013-02-09 00:22:00,
2013-02-08 17:26:00,46.4,19.5,29.72,SSE,157,4.0,4.0,34,0.00,,,0.00,Wunderground v.1.15,2013-02-09 00:26:00,
2013-02-08 17:28:00,46.2,19.3,29.72,SE,140,4.0,4.0,34,0.00,,,0.00,Wunderground v.1.15,2013-02-09 00:28:00,
2013-02-08 17:30:00,46.1,19.9,29.72,South,170,3.0,3.0,35,0.00,,,0.00,Wunderground v.1.15,2013-02-09 00:30:00,
2013-02-08 17:36:00,45.4,21.9,29.74,SSE,148,3.0,3.0,39,0.00,,,0.00,Wunderground v.1.15,2013-02-09 00:36:00,
2013-02-08 17:38:00,45.2,21.7,29.74,SE,140,3.0,3.0,39,0.00,,,0.00,Wunderground v.1.15,2013-02-09 00:38:00,
2013-02-08 17:40:00,45.1,21.6,29.74,ESE,121,2.0,3.0,39,0.00,,,0.00,Wunderground v.1.15,2013-02-09 00:40:00,
2013-02-08 17:44:00,44.8,21.3,29.74,SE,145,3.0,5.0,39,0.00,,,0.00,Wunderground v.1.15,2013-02-09 00:44:00,
2013-02-08 17:46:00,44.6,22.3,29.74,SSE,148,3.0,5.0,41,0.00,,,0.00,Wunderground v.1.15,2013-02-09 00:46:00,
2013-02-08 17:48:00,44.3,22.1,29.74,SE,134,2.0,5.0,41,0.00,,,0.00,Wunderground v.1.15,2013-02-09 00:48:00,
2013-02-08 17:50:00,44.1,22.4,29.74,ESE,123,3.0,4.0,42,0.00,,,0.00,Wunderground v.1.15,2013-02-09 00:50:00,
2013-02-08 17:52:00,43.9,22.3,29.74,SSE,147,2.0,4.0,42,0.00,,,0.00,Wunderground v.1.15,2013-02-09 00:52:00,
2013-02-08 17:54:00,43.6,22.5,29.74,SE,142,2.0,6.0,43,0.00,,,0.00,Wunderground v.1.15,2013-02-09 00:54:00,
2013-02-08 17:56:00,43.3,22.8,29.74,SE,138,3.0,6.0,44,0.00,,,0.00,Wunderground v.1.15,2013-02-09 00:56:00,
2013-02-08 18:00:00,43.1,23.2,29.74,South,171,2.0,2.0,45,0.00,,,0.00,Wunderground v.1.15,2013-02-09 01:00:00,
2013-02-08 18:02:00,42.9,23.0,29.75,South,171,2.0,2.0,45,0.00,,,0.00,Wunderground v.1.15,2013-02-09 01:02:00,
2013-02-08 18:06:00,42.9,22.5,29.75,SSE,149,2.0,3.0,44,0.00,,,0.00,Wunderground v.1.15,2013-02-09 01:06:00,
2013-02-08 18:08:00,42.9,22.5,29.75,SSE,148,1.0,3.0,44,0.00,,,0.00,Wunderground v.1.15,2013-02-09 01:08:00,
2013-02-08 18:12:00,42.8,22.9,29.75,SSE,163,2.0,2.0,45,0.00,,,0.00,Wunderground v.1.15,2013-02-09 01:12:00,
2013-02-08 18:14:00,42.6,22.7,29.75,SSE,164,1.0,2.0,45,0.00,,,0.00,Wunderground v.1.15,2013-02-09 01:14:00,
2013-02-08 18:18:00,42.5,23.2,29.75,SE,142,1.0,3.0,46,0.00,,,0.00,Wunderground v.1.15,2013-02-09 01:18:00,
2013-02-08 18:20:00,42.3,23.0,29.75,SSE,155,1.0,1.0,46,0.00,,,0.00,Wunderground v.1.15,2013-02-09 01:20:00,
2013-02-08 18:24:00,42.1,23.3,29.75,South,181,2.0,2.0,47,0.00,,,0.00,Wunderground v.1.15,2013-02-09 01:24:00,
2013-02-08 18:26:00,41.9,23.6,29.75,SSE,160,1.0,4.0,48,0.00,,,0.00,Wunderground v.1.15,2013-02-09 01:26:00,
2013-02-08 18:28:00,41.8,24.0,29.75,SE,146,2.0,4.0,49,0.00,,,0.00,Wunderground v.1.15,2013-02-09 01:28:00,
2013-02-08 18:32:00,41.5,23.7,29.75,SSE,156,2.0,2.0,49,0.00,,,0.00,Wunderground v.1.15,2013-02-09 01:32:00,
2013-02-08 18:34:00,41.5,23.7,29.75,SE,140,1.0,4.0,49,0.00,,,0.00,Wunderground v.1.15,2013-02-09 01:34:00,
2013-02-08 18:38:00,41.3,24.0,29.75,South,173,2.0,5.0,50,0.00,,,0.00,Wunderground v.1.15,2013-02-09 01:38:00,
2013-02-08 18:40:00,41.3,23.6,29.75,SSW,208,2.0,2.0,49,0.00,,,0.00,Wunderground v.1.15,2013-02-09 01:40:00,
2013-02-08 18:44:00,41.3,23.6,29.75,SSE,166,2.0,2.0,49,0.00,,,0.00,Wunderground v.1.15,2013-02-09 01:44:00,
2013-02-08 18:46:00,41.2,23.9,29.77,SSE,150,1.0,2.0,50,0.00,,,0.00,Wunderground v.1.15,2013-02-09 01:46:00,
2013-02-08 18:50:00,41.1,23.9,29.77,SSE,161,1.0,1.0,50,0.00,,,0.00,Wunderground v.1.15,2013-02-09 01:50:00,
2013-02-08 18:52:00,40.9,23.7,29.77,SSE,161,1.0,1.0,50,0.00,,,0.00,Wunderground v.1.15,2013-02-09 01:52:00,
2013-02-08 18:58:00,40.6,23.9,29.77,SSE,161,1.0,1.0,51,0.00,,,0.00,Wunderground v.1.15,2013-02-09 01:58:00,
2013-02-08 19:00:00,40.3,23.6,29.77,SSE,161,0.0,0.0,51,0.00,,,0.00,Wunderground v.1.15,2013-02-09 02:00:00,
2013-02-08 19:04:00,40.1,23.9,29.77,SSE,161,0.0,1.0,52,0.00,,,0.00,Wunderground v.1.15,2013-02-09 02:04:00,
2013-02-08 19:06:00,39.9,23.7,29.77,SSE,161,0.0,1.0,52,0.00,,,0.00,Wunderground v.1.15,2013-02-09 02:06:00,
2013-02-08 19:10:00,39.6,23.4,29.77,SSE,161,0.0,0.0,52,0.00,,,0.00,Wunderground v.1.15,2013-02-09 02:10:00,
2013-02-08 19:14:00,39.5,23.8,29.77,SSE,161,0.0,0.0,53,0.00,,,0.00,Wunderground v.1.15,2013-02-09 02:14:00,
2013-02-08 19:16:00,39.3,23.6,29.76,SSE,161,0.0,0.0,53,0.00,,,0.00,Wunderground v.1.15,2013-02-09 02:16:00,
2013-02-08 19:20:00,39.3,23.6,29.76,SSE,161,0.0,0.0,53,0.00,,,0.00,Wunderground v.1.15,2013-02-09 02:20:00,
2013-02-08 19:22:00,39.2,23.5,29.76,SSE,161,0.0,0.0,53,0.00,,,0.00,Wunderground v.1.15,2013-02-09 02:22:00,
2013-02-08 19:24:00,39.1,23.8,29.76,SSE,161,0.0,0.0,54,0.00,,,0.00,Wunderground v.1.15,2013-02-09 02:24:00,
2013-02-08 19:31:00,38.5,23.7,29.76,SSE,161,0.0,2.0,55,0.00,,,0.00,Wunderground v.1.15,2013-02-09 02:31:00,
2013-02-08 19:32:00,38.3,23.5,29.76,SSE,161,0.0,2.0,55,0.00,,,0.00,Wunderground v.1.15,2013-02-09 02:32:00,
2013-02-08 19:36:00,38.2,23.4,29.76,SSE,161,0.0,2.0,55,0.00,,,0.00,Wunderground v.1.15,2013-02-09 02:36:00,
2013-02-08 19:38:00,38.2,23.4,29.76,SSE,161,0.0,2.0,55,0.00,,,0.00,Wunderground v.1.15,2013-02-09 02:38:00,
2013-02-08 19:40:00,38.2,23.4,29.76,SSE,161,0.0,0.0,55,0.00,,,0.00,Wunderground v.1.15,2013-02-09 02:40:00,
2013-02-08 19:42:00,38.2,23.4,29.76,SSE,161,0.0,0.0,55,0.00,,,0.00,Wunderground v.1.15,2013-02-09 02:42:00,
2013-02-08 19:48:00,37.9,23.6,29.76,SSE,161,0.0,0.0,56,0.00,,,0.00,Wunderground v.1.15,2013-02-09 02:48:00,
2013-02-08 19:50:00,37.8,23.5,29.76,SSE,161,0.0,0.0,56,0.00,,,0.00,Wunderground v.1.15,2013-02-09 02:50:00,
2013-02-08 19:52:00,37.6,23.3,29.76,SSE,161,0.0,0.0,56,0.00,,,0.00,Wunderground v.1.15,2013-02-09 02:52:00,
2013-02-08 19:54:00,37.5,23.2,29.76,SSE,161,0.0,0.0,56,0.00,,,0.00,Wunderground v.1.15,2013-02-09 02:54:00,
2013-02-08 19:58:00,37.0,23.2,29.76,SSE,161,0.0,0.0,57,0.00,,,0.00,Wunderground v.1.15,2013-02-09 02:58:00,
2013-02-08 20:02:00,36.6,23.2,29.78,SSE,161,0.0,0.0,58,0.00,,,0.00,Wunderground v.1.15,2013-02-09 03:02:00,
2013-02-08 20:04:00,36.5,23.1,29.78,SSE,161,0.0,0.0,58,0.00,,,0.00,Wunderground v.1.15,2013-02-09 03:04:00,
2013-02-08 20:06:00,36.2,23.2,29.78,SSE,161,0.0,0.0,59,0.00,,,0.00,Wunderground v.1.15,2013-02-09 03:06:00,
2013-02-08 20:08:00,36.2,23.2,29.78,SSE,161,0.0,0.0,59,0.00,,,0.00,Wunderground v.1.15,2013-02-09 03:08:00,
2013-02-08 20:10:00,36.0,23.0,29.78,SSE,161,0.0,0.0,59,0.00,,,0.00,Wunderground v.1.15,2013-02-09 03:10:00,
2013-02-08 20:12:00,35.9,23.4,29.78,SSE,161,0.0,0.0,60,0.00,,,0.00,Wunderground v.1.15,2013-02-09 03:12:00,
2013-02-08 20:18:00,35.6,23.1,29.77,SSE,161,0.0,0.0,60,0.00,,,0.00,Wunderground v.1.15,2013-02-09 03:18:00,
2013-02-08 20:20:00,35.6,23.5,29.77,SSE,161,0.0,0.0,61,0.00,,,0.00,Wunderground v.1.15,2013-02-09 03:20:00,
2013-02-08 20:24:00,35.6,23.1,29.77,SSE,161,0.0,0.0,60,0.00,,,0.00,Wunderground v.1.15,2013-02-09 03:24:00,
2013-02-08 20:26:00,35.6,23.1,29.77,SSE,161,0.0,0.0,60,0.00,,,0.00,Wunderground v.1.15,2013-02-09 03:26:00,
2013-02-08 20:28:00,35.6,23.1,29.77,SSE,161,0.0,0.0,60,0.00,,,0.00,Wunderground v.1.15,2013-02-09 03:28:00,
2013-02-08 20:30:00,35.5,23.0,29.77,SSE,161,0.0,0.0,60,0.00,,,0.00,Wunderground v.1.15,2013-02-09 03:30:00,
2013-02-08 20:32:00,35.5,23.0,29.77,SSE,161,0.0,0.0,60,0.00,,,0.00,Wunderground v.1.15,2013-02-09 03:32:00,
2013-02-08 20:34:00,35.3,22.8,29.77,SSE,161,0.0,0.0,60,0.00,,,0.00,Wunderground v.1.15,2013-02-09 03:34:00,
2013-02-08 20:38:00,35.2,22.7,29.77,SSE,161,0.0,0.0,60,0.00,,,0.00,Wunderground v.1.15,2013-02-09 03:38:00,
2013-02-08 20:40:00,34.9,22.4,29.77,SSE,161,0.0,0.0,60,0.00,,,0.00,Wunderground v.1.15,2013-02-09 03:40:00,
2013-02-08 20:42:00,34.9,20.8,29.77,SSE,161,0.0,0.0,56,0.00,,,0.00,Wunderground v.1.15,2013-02-09 03:42:00,
2013-02-08 20:44:00,35.0,20.4,29.77,SSE,161,0.0,2.0,55,0.00,,,0.00,Wunderground v.1.15,2013-02-09 03:44:00,
2013-02-08 20:46:00,35.5,18.7,29.78,SSE,161,0.0,2.0,50,0.00,,,0.00,Wunderground v.1.15,2013-02-09 03:46:00,
2013-02-08 20:48:00,35.9,17.6,29.78,SSW,209,0.0,2.0,47,0.00,,,0.00,Wunderground v.1.15,2013-02-09 03:48:00,
2013-02-08 20:50:00,36.8,17.4,29.78,SSW,208,1.0,3.0,45,0.00,,,0.00,Wunderground v.1.15,2013-02-09 03:50:00,
2013-02-08 20:52:00,37.9,12.6,29.78,WSW,246,1.0,7.0,35,0.00,,,0.00,Wunderground v.1.15,2013-02-09 03:52:00,
2013-02-08 20:54:00,40.2,9.6,29.78,SSW,205,3.0,9.0,28,0.00,,,0.00,Wunderground v.1.15,2013-02-09 03:54:00,
2013-02-08 20:56:00,41.8,9.4,29.78,WSW,238,4.0,16.0,26,0.00,,,0.00,Wunderground v.1.15,2013-02-09 03:56:00,
2013-02-08 20:58:00,43.3,8.9,29.78,SW,233,5.0,16.0,24,0.00,,,0.00,Wunderground v.1.15,2013-02-09 03:58:00,
2013-02-08 21:00:00,44.1,9.5,29.78,SW,230,6.0,10.0,24,0.00,,,0.00,Wunderground v.1.15,2013-02-09 04:00:00,
2013-02-08 21:04:00,44.8,9.2,29.72,WSW,238,7.0,10.0,23,0.00,,,0.00,Wunderground v.1.15,2013-02-09 04:04:00,
2013-02-08 21:06:00,44.8,9.2,29.72,SW,226,7.0,10.0,23,0.00,,,0.00,Wunderground v.1.15,2013-02-09 04:06:00,
2013-02-08 21:08:00,44.8,9.2,29.72,West,265,7.0,10.0,23,0.00,,,0.00,Wunderground v.1.15,2013-02-09 04:08:00,
2013-02-08 21:10:00,44.8,9.2,29.72,SW,229,7.0,7.0,23,0.00,,,0.00,Wunderground v.1.15,2013-02-09 04:10:00,
2013-02-08 21:14:00,44.6,9.0,29.72,West,266,6.0,12.0,23,0.00,,,0.00,Wunderground v.1.15,2013-02-09 04:14:00,
2013-02-08 21:18:00,44.5,8.9,29.69,WSW,245,7.0,12.0,23,0.00,,,0.00,Wunderground v.1.15,2013-02-09 04:18:00,
2013-02-08 21:22:00,44.3,9.7,29.69,SW,217,6.0,6.0,24,0.00,,,0.00,Wunderground v.1.15,2013-02-09 04:22:00,
2013-02-08 21:24:00,44.2,9.6,29.69,SW,231,5.0,6.0,24,0.00,,,0.00,Wunderground v.1.15,2013-02-09 04:24:00,
2013-02-08 21:28:00,44.1,9.5,29.69,WSW,252,4.0,6.0,24,0.00,,,0.00,Wunderground v.1.15,2013-02-09 04:28:00,
2013-02-08 21:30:00,43.9,9.4,29.69,SW,235,4.0,4.0,24,0.00,,,0.00,Wunderground v.1.15,2013-02-09 04:30:00,
2013-02-08 21:32:00,43.8,10.2,29.70,SW,234,3.0,4.0,25,0.00,,,0.00,Wunderground v.1.15,2013-02-09 04:32:00,
2013-02-08 21:34:00,43.6,10.0,29.70,SW,227,3.0,4.0,25,0.00,,,0.00,Wunderground v.1.15,2013-02-09 04:34:00,
2013-02-08 21:38:00,43.3,10.7,29.70,WSW,243,2.0,4.0,26,0.00,,,0.00,Wunderground v.1.15,2013-02-09 04:38:00,
2013-02-08 21:40:00,43.2,10.6,29.70,WSW,243,1.0,1.0,26,0.00,,,0.00,Wunderground v.1.15,2013-02-09 04:40:00,
2013-02-08 21:42:00,43.1,11.3,29.70,WSW,243,1.0,1.0,27,0.00,,,0.00,Wunderground v.1.15,2013-02-09 04:42:00,
2013-02-08 21:44:00,43.1,10.5,29.70,WSW,243,0.0,2.0,26,0.00,,,0.00,Wunderground v.1.15,2013-02-09 04:44:00,
2013-02-08 21:46:00,42.9,11.2,29.71,WSW,243,0.0,2.0,27,0.00,,,0.00,Wunderground v.1.15,2013-02-09 04:46:00,
2013-02-08 21:52:00,42.5,10.8,29.71,SW,225,1.0,4.0,27,0.00,,,0.00,Wunderground v.1.15,2013-02-09 04:52:00,
2013-02-08 21:56:00,42.2,11.4,29.71,SW,230,1.0,4.0,28,0.00,,,0.00,Wunderground v.1.15,2013-02-09 04:56:00,
2013-02-08 21:58:00,42.1,10.5,29.71,WSW,241,1.0,4.0,27,0.00,,,0.00,Wunderground v.1.15,2013-02-09 04:58:00,
2013-02-08 22:00:00,42.1,10.5,29.71,SW,221,1.0,1.0,27,0.00,,,0.00,Wunderground v.1.15,2013-02-09 05:00:00,
2013-02-08 22:04:00,41.9,10.3,29.73,SW,221,2.0,2.0,27,0.00,,,0.00,Wunderground v.1.15,2013-02-09 05:04:00,
2013-02-08 22:06:00,41.9,10.3,29.73,WSW,238,2.0,2.0,27,0.00,,,0.00,Wunderground v.1.15,2013-02-09 05:06:00,
2013-02-08 22:10:00,42.1,11.3,29.73,WSW,240,2.0,2.0,28,0.00,,,0.00,Wunderground v.1.15,2013-02-09 05:10:00,
2013-02-08 22:12:00,42.1,11.3,29.73,WSW,245,2.0,2.0,28,0.00,,,0.00,Wunderground v.1.15,2013-02-09 05:12:00,
2013-02-08 22:18:00,42.1,12.1,29.70,WSW,237,2.0,6.0,29,0.00,,,0.00,Wunderground v.1.15,2013-02-09 05:18:00,
2013-02-08 22:20:00,42.1,12.1,29.70,WNW,286,2.0,4.0,29,0.00,,,0.00,Wunderground v.1.15,2013-02-09 05:20:00,
2013-02-08 22:24:00,42.1,12.1,29.70,WSW,250,3.0,4.0,29,0.00,,,0.00,Wunderground v.1.15,2013-02-09 05:24:00,
2013-02-08 22:26:00,42.1,12.8,29.70,WSW,254,3.0,4.0,30,0.00,,,0.00,Wunderground v.1.15,2013-02-09 05:26:00,
2013-02-08 22:28:00,42.1,12.1,29.70,WSW,250,3.0,4.0,29,0.00,,,0.00,Wunderground v.1.15,2013-02-09 05:28:00,
2013-02-08 22:32:00,41.9,12.7,29.70,WNW,292,3.0,4.0,30,0.00,,,0.00,Wunderground v.1.15,2013-02-09 05:32:00,
2013-02-08 22:34:00,41.9,12.7,29.70,West,261,3.0,4.0,30,0.00,,,0.00,Wunderground v.1.15,2013-02-09 05:34:00,
2013-02-08 22:38:00,41.6,13.2,29.70,SW,234,2.0,5.0,31,0.00,,,0.00,Wunderground v.1.15,2013-02-09 05:38:00,
2013-02-08 22:40:00,41.6,13.2,29.70,WSW,242,2.0,2.0,31,0.00,,,0.00,Wunderground v.1.15,2013-02-09 05:40:00,
2013-02-08 22:44:00,41.3,12.9,29.70,WSW,244,2.0,2.0,31,0.00,,,0.00,Wunderground v.1.15,2013-02-09 05:44:00,
2013-02-08 22:46:00,41.3,13.6,29.72,WSW,242,2.0,2.0,32,0.00,,,0.00,Wunderground v.1.15,2013-02-09 05:46:00,
2013-02-08 22:50:00,41.2,13.5,29.72,WSW,238,3.0,3.0,32,0.00,,,0.00,Wunderground v.1.15,2013-02-09 05:50:00,
2013-02-08 22:54:00,41.1,13.4,29.72,WSW,239,3.0,3.0,32,0.00,,,0.00,Wunderground v.1.15,2013-02-09 05:54:00,
2013-02-08 22:56:00,41.1,14.1,29.72,WSW,248,3.0,5.0,33,0.00,,,0.00,Wunderground v.1.15,2013-02-09 05:56:00,
2013-02-08 22:58:00,40.9,14.0,29.72,SW,233,3.0,5.0,33,0.00,,,0.00,Wunderground v.1.15,2013-02-09 05:58:00,
2013-02-08 23:02:00,40.6,14.4,29.72,WSW,238,3.0,4.0,34,0.00,,,0.00,Wunderground v.1.15,2013-02-09 06:02:00,
2013-02-08 23:08:00,40.3,14.8,29.72,West,261,3.0,5.0,35,0.00,,,0.00,Wunderground v.1.15,2013-02-09 06:08:00,
2013-02-08 23:10:00,40.2,14.7,29.72,SW,220,3.0,4.0,35,0.00,,,0.00,Wunderground v.1.15,2013-02-09 06:10:00,
2013-02-08 23:16:00,40.2,14.7,29.71,West,273,4.0,4.0,35,0.00,,,0.00,Wunderground v.1.15,2013-02-09 06:16:00,
2013-02-08 23:18:00,40.2,14.7,29.71,WSW,242,4.0,4.0,35,0.00,,,0.00,Wunderground v.1.15,2013-02-09 06:18:00,
2013-02-08 23:20:00,40.1,14.6,29.71,WSW,239,4.0,4.0,35,0.00,,,0.00,Wunderground v.1.15,2013-02-09 06:20:00,
2013-02-08 23:22:00,40.1,14.6,29.71,SW,232,3.0,10.0,35,0.00,,,0.00,Wunderground v.1.15,2013-02-09 06:22:00,
2013-02-08 23:24:00,40.1,14.6,29.71,SW,219,3.0,10.0,35,0.00,,,0.00,Wunderground v.1.15,2013-02-09 06:24:00,
2013-02-08 23:26:00,39.9,15.1,29.71,SW,217,3.0,10.0,36,0.00,,,0.00,Wunderground v.1.15,2013-02-09 06:26:00,
2013-02-08 23:30:00,39.8,15.0,29.71,SW,218,4.0,4.0,36,0.00,,,0.00,Wunderground v.1.15,2013-02-09 06:30:00,
2013-02-08 23:32:00,39.8,15.0,29.70,SW,219,4.0,4.0,36,0.00,,,0.00,Wunderground v.1.15,2013-02-09 06:32:00,
2013-02-08 23:36:00,39.8,15.0,29.70,SW,232,4.0,5.0,36,0.00,,,0.00,Wunderground v.1.15,2013-02-09 06:36:00,
2013-02-08 23:40:00,39.6,14.8,29.70,SW,223,4.0,4.0,36,0.00,,,0.00,Wunderground v.1.15,2013-02-09 06:40:00,
2013-02-08 23:42:00,39.8,15.0,29.70,South,184,5.0,5.0,36,0.00,,,0.00,Wunderground v.1.15,2013-02-09 06:42:00,
2013-02-08 23:46:00,39.6,14.8,29.72,ESE,111,3.0,5.0,36,0.00,,,0.00,Wunderground v.1.15,2013-02-09 06:46:00,
2013-02-08 23:52:00,39.5,14.7,29.72,East,95,2.0,4.0,36,0.00,,,0.00,Wunderground v.1.15,2013-02-09 06:52:00,
2013-02-08 23:54:00,39.6,14.8,29.72,East,95,2.0,4.0,36,0.00,,,0.00,Wunderground v.1.15,2013-02-09 06:54:00,
2013-02-08 23:56:00,39.6,15.4,29.72,East,93,2.0,4.0,37,0.00,,,0.00,Wunderground v.1.15,2013-02-09 06:56:00,